Home > Weather > Pictou > Past weeks

Flag for Canada Past Weather in Pictou, Nova Scotia, Canada — Yesterday and Last 2 Weeks

Now
66 °F

Mild.


Feels Like: 66 °F
Forecast: 63 / 69 °F
Wind: 15 mph from Northwest

Location: Caribou Point

Current Time: Aug 27, 2016 at 9:00:11 AM

Latest Report: Aug 27, 2016 at 8:00 AM


Visibility: N/A

Pressure: 29.94 "Hg

Humidity: 89%

Dew Point: 63 °F

Location of PictouLocation

Past Weather in Pictou — Graph

°F

Pictou Temperature Yesterday

Maximum temperature yesterday: 78 °F (at 3:00 PM)
Minimum temperature yesterday: 66 °F (at 6:00 AM)
Average temperature yesterday: 71 °F

High & Low Weather Summary for the Past Weeks

 TemperatureHumidityPressure
High83 °F (Aug 25, 5:00 PM)100% (Aug 17, 10:00 AM)30.18 "Hg (Aug 17, 10:00 AM)
Low60 °F (Aug 17, 10:00 AM)44% (Aug 13, 4:00 PM)29.67 "Hg (Aug 22, 7:00 PM)
Average67 °F81%29.94 "Hg
* Reported Aug 12 8:00 AM — Aug 27 8:00 AM, Pictou, Weather by CustomWeather, © 2016

Note: Actual official high and low records may vary slightly from our data, if they occured in-between our weather recording intervals... More about our weather records

Advertising

Pictou Weather History for the Previous 24 Hours

Scroll right to see more
 ConditionsComfort  
Time TempWeatherWind HumidityBarometerVisibility
8:00 AM
Sat, Aug 27
66 °FMild.15 mph89%29.94 "HgN/A
7:00 AM67 °FMild.18 mph90%29.91 "HgN/A
6:00 AM67 °FMild.14 mph90%29.88 "HgN/A
5:00 AM68 °FMild.17 mph88%29.87 "HgN/A
4:00 AM68 °FMild.17 mph89%29.86 "HgN/A
3:00 AM70 °FMild.15 mph88%29.85 "HgN/A
2:00 AM70 °FMild.7 mph89%29.83 "HgN/A
1:00 AM71 °FMild.7 mph88%29.83 "HgN/A
12:00 AM70 °FMild.3 mph91%29.83 "HgN/A
11:00 PM
Fri, Aug 26
70 °FMild.3 mph91%29.83 "HgN/A
10:00 PM71 °FMild.6 mph89%29.84 "HgN/A
9:00 PM71 °FMild.7 mph88%29.85 "HgN/A
8:00 PM72 °FMild.6 mph87%29.84 "HgN/A
7:00 PM73 °FMild.7 mph84%29.83 "HgN/A
6:00 PM73 °FMild.7 mph83%29.84 "HgN/A
5:00 PM74 °FMild.6 mph79%29.85 "HgN/A
4:00 PM76 °FMild.6 mph77%29.86 "HgN/A
3:00 PM78 °FWarm.8 mph72%29.85 "HgN/A
2:00 PM77 °FWarm.7 mph73%29.88 "HgN/A
1:00 PM75 °FMild.7 mph76%29.88 "HgN/A
12:00 PM74 °FMild.9 mph77%29.89 "HgN/A
11:00 AM73 °FMild.7 mph80%29.91 "HgN/A
10:00 AM71 °FMild.7 mph81%29.91 "HgN/A
9:00 AM68 °FMild.7 mph84%29.90 "HgN/A
Weather by CustomWeather, © 2016

See weather overviewHow to use our weather pages